EXS01A EGPH-EGGD

Flight info

Callsign EXS01A
Flight time 0h 55m
Altitude 33000
Route GOSAM P600 FENIK L612 NAVSO DCT ADZOP DCT EGTOC DCT NOKIN DCT KARNO DCT ALHUP DCT LUCSA N862 WEVBE
Aircraft A321/M-SDE3FGHIRWY/LB1

Departure

Time 2026-04-21 10:44
Airport Edinburgh Airport (EGPH)

Arrival

Time 2026-04-21 11:39
Airport Bristol Airport (EGGD)
Time Latitude Longitude Altitude Speed Heading
2026-04-21 10:25 55.94702 -3.36851 113 ft 0 kts 269°
2026-04-21 10:37 55.94702 -3.36821 116 ft 4 kts 275°
2026-04-21 10:37 55.94697 -3.36775 115 ft 4 kts 294°
2026-04-21 10:38 55.94683 -3.36740 114 ft 4 kts 338°
2026-04-21 10:38 55.94674 -3.36735 113 ft 0 kts 359°
2026-04-21 10:40 55.94703 -3.36736 113 ft 7 kts 359°
2026-04-21 10:40 55.94752 -3.36749 116 ft 9 kts 338°
2026-04-21 10:41 55.94829 -3.36776 116 ft 12 kts 359°
2026-04-21 10:41 55.94906 -3.36815 114 ft 11 kts 326°
2026-04-21 10:41 55.94907 -3.36939 113 ft 13 kts 225°
2026-04-21 10:41 55.94865 -3.37077 113 ft 13 kts 240°
2026-04-21 10:42 55.94810 -3.37236 114 ft 15 kts 239°
2026-04-21 10:42 55.94759 -3.37388 113 ft 14 kts 239°
2026-04-21 10:42 55.94711 -3.37529 115 ft 13 kts 238°
2026-04-21 10:42 55.94643 -3.37730 112 ft 23 kts 239°
2026-04-21 10:43 55.94591 -3.37910 114 ft 11 kts 271°
2026-04-21 10:43 55.94641 -3.38004 113 ft 11 kts 326°
2026-04-21 10:43 55.94714 -3.38064 114 ft 10 kts
2026-04-21 10:43 55.94757 -3.37968 113 ft 14 kts 57°
2026-04-21 10:44 55.94942 -3.37422 112 ft 99 kts 59°
2026-04-21 10:44 55.95408 -3.36035 468 ft 142 kts 60°
2026-04-21 10:44 55.95930 -3.34525 1534 ft 145 kts 57°
2026-04-21 10:44 55.96646 -3.33255 2209 ft 148 kts 46°
2026-04-21 10:45 55.97467 -3.31931 2469 ft 170 kts 44°
2026-04-21 10:45 55.98405 -3.30415 2716 ft 193 kts 44°
2026-04-21 10:45 55.99493 -3.28746 2972 ft 220 kts 36°
2026-04-21 10:45 56.01057 -3.28075 3481 ft 249 kts 356°
2026-04-21 10:46 56.02659 -3.29392 4269 ft 267 kts 319°
2026-04-21 10:46 56.03614 -3.32239 5075 ft 279 kts 283°
2026-04-21 10:46 56.03644 -3.35744 5760 ft 287 kts 259°
2026-04-21 10:46 56.03154 -3.39204 5954 ft 287 kts 249°
2026-04-21 10:47 56.02478 -3.42553 6009 ft 286 kts 246°
2026-04-21 10:47 56.01781 -3.45894 6012 ft 287 kts 248°
2026-04-21 10:47 56.01136 -3.49275 6011 ft 287 kts 250°
2026-04-21 10:47 56.00551 -3.52684 6011 ft 286 kts 252°
2026-04-21 10:48 56.00014 -3.56117 6012 ft 287 kts 252°
2026-04-21 10:48 55.99508 -3.59546 6446 ft 290 kts 253°
2026-04-21 10:48 55.99007 -3.63043 7390 ft 292 kts 253°
2026-04-21 10:48 55.98504 -3.66572 8240 ft 295 kts 253°
2026-04-21 10:49 55.97996 -3.70138 9085 ft 298 kts 252°
2026-04-21 10:49 55.97483 -3.73742 9927 ft 301 kts 252°
2026-04-21 10:49 55.96964 -3.77379 10714 ft 305 kts 252°
2026-04-21 10:49 55.96413 -3.81185 10972 ft 328 kts 252°
2026-04-21 10:50 55.95814 -3.85266 11159 ft 351 kts 252°
2026-04-21 10:50 55.95172 -3.89623 11389 ft 371 kts 252°
2026-04-21 10:50 55.94512 -3.94125 11971 ft 378 kts 253°
2026-04-21 10:50 55.93728 -3.98615 12648 ft 380 kts 243°
2026-04-21 10:51 55.92357 -4.02616 13327 ft 378 kts 226°
2026-04-21 10:51 55.90401 -4.05688 14020 ft 374 kts 208°
2026-04-21 10:51 55.88043 -4.07525 14672 ft 369 kts 190°
2026-04-21 10:51 55.85510 -4.07997 15286 ft 365 kts 173°
2026-04-21 10:52 55.83022 -4.07221 15905 ft 364 kts 163°
2026-04-21 10:52 55.80581 -4.06172 16520 ft 367 kts 163°
2026-04-21 10:52 55.78094 -4.05085 17140 ft 370 kts 163°
2026-04-21 10:52 55.75584 -4.03985 17741 ft 373 kts 163°
2026-04-21 10:53 55.73044 -4.02878 18321 ft 376 kts 163°
2026-04-21 10:53 55.70492 -4.01772 18905 ft 380 kts 163°
2026-04-21 10:53 55.67910 -4.00663 19410 ft 383 kts 163°
2026-04-21 10:53 55.65311 -3.99552 19935 ft 386 kts 163°
2026-04-21 10:54 55.62694 -3.98434 20458 ft 388 kts 163°
2026-04-21 10:54 55.60061 -3.97311 20968 ft 390 kts 163°
2026-04-21 10:54 55.57411 -3.96180 21490 ft 393 kts 163°
2026-04-21 10:54 55.54745 -3.95044 22010 ft 395 kts 162°
2026-04-21 10:55 55.52059 -3.93904 22539 ft 398 kts 162°
2026-04-21 10:55 55.49360 -3.92762 23048 ft 400 kts 162°
2026-04-21 10:55 55.46637 -3.91612 23558 ft 403 kts 162°
2026-04-21 10:55 55.43903 -3.90457 24073 ft 405 kts 162°
2026-04-21 10:56 55.41152 -3.89291 24490 ft 408 kts 162°
2026-04-21 10:56 55.38379 -3.88117 24879 ft 411 kts 162°
2026-04-21 10:56 55.35628 -3.86956 25233 ft 413 kts 163°
2026-04-21 10:56 55.32818 -3.85775 25578 ft 417 kts 163°
2026-04-21 10:57 55.29967 -3.84576 25942 ft 420 kts 163°
2026-04-21 10:57 55.27103 -3.83373 26324 ft 423 kts 163°
2026-04-21 10:57 55.24272 -3.82184 26686 ft 425 kts 163°
2026-04-21 10:57 55.21390 -3.80950 27060 ft 427 kts 162°
2026-04-21 10:58 55.18526 -3.79547 27413 ft 429 kts 160°
2026-04-21 10:58 55.15665 -3.77984 27740 ft 432 kts 159°
2026-04-21 10:58 55.12803 -3.76334 28081 ft 434 kts 159°
2026-04-21 10:58 55.09926 -3.74656 28427 ft 437 kts 159°
2026-04-21 10:59 55.07030 -3.72987 28763 ft 439 kts 159°
2026-04-21 10:59 55.04116 -3.71343 29122 ft 441 kts 160°
2026-04-21 10:59 55.01189 -3.69733 29572 ft 440 kts 160°
2026-04-21 10:59 54.98265 -3.68151 30034 ft 440 kts 160°
2026-04-21 11:00 54.95343 -3.66583 30484 ft 439 kts 161°
2026-04-21 11:00 54.92415 -3.65014 30727 ft 443 kts 162°
2026-04-21 11:00 54.89421 -3.63408 30945 ft 446 kts 162°
2026-04-21 11:00 54.86497 -3.61836 31312 ft 445 kts 162°
2026-04-21 11:01 54.83529 -3.60235 31639 ft 446 kts 162°
2026-04-21 11:01 54.80573 -3.58637 32012 ft 445 kts 163°
2026-04-21 11:01 54.77609 -3.57036 32297 ft 447 kts 163°
2026-04-21 11:02 54.71657 -3.53830 32904 ft 449 kts 163°
2026-04-21 11:02 54.68668 -3.52227 33198 ft 451 kts 165°
2026-04-21 11:02 54.65659 -3.50616 33367 ft 455 kts 164°
2026-04-21 11:02 54.62631 -3.49000 33473 ft 455 kts 165°
2026-04-21 11:03 54.56624 -3.45635 33480 ft 452 kts 164°
2026-04-21 11:03 54.50615 -3.42507 33477 ft 451 kts 165°
2026-04-21 11:04 54.44601 -3.39432 33462 ft 451 kts 165°
2026-04-21 11:04 54.38564 -3.36278 33466 ft 455 kts 165°
2026-04-21 11:05 54.32507 -3.33073 33466 ft 456 kts 165°
2026-04-21 11:05 54.26447 -3.29860 33460 ft 456 kts 165°
2026-04-21 11:06 54.20415 -3.26699 33460 ft 456 kts 166°
2026-04-21 11:06 54.14204 -3.24935 33440 ft 452 kts 178°
2026-04-21 11:07 54.07934 -3.23967 33432 ft 453 kts 177°
2026-04-21 11:07 54.01659 -3.22972 33433 ft 453 kts 177°
2026-04-21 11:08 53.95440 -3.20977 33428 ft 456 kts 170°
2026-04-21 11:08 53.89243 -3.18617 33420 ft 457 kts 170°
2026-04-21 11:09 53.83028 -3.16277 33420 ft 457 kts 171°
2026-04-21 11:09 53.76818 -3.13935 33423 ft 457 kts 170°
2026-04-21 11:10 53.70642 -3.11606 33431 ft 458 kts 170°
2026-04-21 11:10 53.64413 -3.09269 33385 ft 459 kts 171°
2026-04-21 11:11 53.58163 -3.06920 33386 ft 460 kts 171°
2026-04-21 11:11 53.51897 -3.04577 33391 ft 461 kts 171°
2026-04-21 11:12 53.45630 -3.02251 33396 ft 461 kts 171°
2026-04-21 11:12 53.39394 -2.99942 33396 ft 461 kts 171°
2026-04-21 11:13 53.33114 -2.97615 33398 ft 462 kts 171°
2026-04-21 11:13 53.26842 -2.95304 33400 ft 462 kts 171°
2026-04-21 11:14 53.20561 -2.93004 33392 ft 462 kts 171°
2026-04-21 11:14 53.14276 -2.90703 33385 ft 463 kts 172°
2026-04-21 11:15 53.07953 -2.88662 33382 ft 460 kts 179°
2026-04-21 11:15 53.01607 -2.88805 33335 ft 457 kts 188°
2026-04-21 11:16 52.98416 -2.89086 33053 ft 459 kts 187°
2026-04-21 11:16 52.95219 -2.89357 32755 ft 462 kts 189°
2026-04-21 11:16 52.91994 -2.89631 31802 ft 469 kts 189°
2026-04-21 11:16 52.88719 -2.90013 30837 ft 470 kts 194°
2026-04-21 11:17 52.85507 -2.90755 29728 ft 475 kts 195°
2026-04-21 11:17 52.82224 -2.91530 28846 ft 475 kts 194°
2026-04-21 11:17 52.78980 -2.92287 28295 ft 468 kts 194°
2026-04-21 11:17 52.75772 -2.93034 27643 ft 464 kts 194°
2026-04-21 11:18 52.72583 -2.93779 26986 ft 459 kts 193°
2026-04-21 11:18 52.69398 -2.94265 26371 ft 458 kts 188°
2026-04-21 11:18 52.66223 -2.94534 25743 ft 455 kts 188°
2026-04-21 11:18 52.63074 -2.94793 25125 ft 452 kts 187°
2026-04-21 11:19 52.59939 -2.95051 24525 ft 448 kts 187°
2026-04-21 11:19 52.56832 -2.95308 23907 ft 445 kts 186°
2026-04-21 11:19 52.53748 -2.95562 23246 ft 441 kts 186°
2026-04-21 11:19 52.50746 -2.95807 22718 ft 434 kts 186°
2026-04-21 11:20 52.47752 -2.96049 22162 ft 428 kts 186°
2026-04-21 11:20 52.44792 -2.96288 21676 ft 420 kts 186°
2026-04-21 11:20 52.41892 -2.96524 21180 ft 414 kts 185°
2026-04-21 11:20 52.39040 -2.96759 20716 ft 407 kts 185°
2026-04-21 11:21 52.36229 -2.96993 20257 ft 401 kts 185°
2026-04-21 11:21 52.33454 -2.97228 19811 ft 395 kts 185°
2026-04-21 11:21 52.30721 -2.97458 19387 ft 391 kts 185°
2026-04-21 11:21 52.28021 -2.97682 18948 ft 386 kts 184°
2026-04-21 11:22 52.25346 -2.97900 18493 ft 382 kts 183°
2026-04-21 11:22 52.22708 -2.98114 18028 ft 378 kts 183°
2026-04-21 11:22 52.20099 -2.98327 17593 ft 373 kts 183°
2026-04-21 11:22 52.17519 -2.98543 17161 ft 370 kts 183°
2026-04-21 11:23 52.14956 -2.98756 16706 ft 366 kts 182°
2026-04-21 11:23 52.12458 -2.98956 16280 ft 362 kts 182°
2026-04-21 11:23 52.09910 -2.99153 15851 ft 373 kts 182°
2026-04-21 11:23 52.07305 -2.99352 15411 ft 375 kts 181°
2026-04-21 11:24 52.04705 -2.99554 14975 ft 373 kts 181°
2026-04-21 11:24 52.02125 -2.99761 14572 ft 369 kts 181°
2026-04-21 11:24 51.99573 -2.99973 14150 ft 366 kts 182°
2026-04-21 11:24 51.97040 -3.00150 13703 ft 362 kts 178°
2026-04-21 11:25 51.94548 -2.99740 13291 ft 358 kts 166°
2026-04-21 11:25 51.92177 -2.98601 12884 ft 353 kts 157°
2026-04-21 11:25 51.89878 -2.97209 12485 ft 351 kts 157°
2026-04-21 11:25 51.87626 -2.95851 12093 ft 349 kts 157°
2026-04-21 11:26 51.85357 -2.94486 11700 ft 347 kts 158°
2026-04-21 11:26 51.83102 -2.93137 11321 ft 343 kts 157°
2026-04-21 11:26 51.80905 -2.91835 11190 ft 329 kts 157°
2026-04-21 11:26 51.78802 -2.90589 11055 ft 315 kts 158°
2026-04-21 11:27 51.77454 -2.89791 10979 ft 307 kts 157°
2026-04-21 11:27 51.75489 -2.88627 10864 ft 296 kts 157°
2026-04-21 11:27 51.73585 -2.87496 10646 ft 288 kts 157°
2026-04-21 11:27 51.71725 -2.86389 10456 ft 283 kts 156°
2026-04-21 11:28 51.69839 -2.85462 10078 ft 284 kts 161°
2026-04-21 11:28 51.67935 -2.84629 9679 ft 282 kts 160°
2026-04-21 11:28 51.66045 -2.83806 9307 ft 280 kts 161°
2026-04-21 11:28 51.64171 -2.82992 8935 ft 278 kts 161°
2026-04-21 11:29 51.62314 -2.82187 8567 ft 275 kts 160°
2026-04-21 11:29 51.60474 -2.81388 8198 ft 272 kts 160°
2026-04-21 11:29 51.58653 -2.80600 7721 ft 270 kts 160°
2026-04-21 11:29 51.56848 -2.79834 7374 ft 267 kts 160°
2026-04-21 11:30 51.55057 -2.79085 7016 ft 265 kts 161°
2026-04-21 11:30 51.53282 -2.78332 6676 ft 263 kts 160°
2026-04-21 11:30 51.51521 -2.77578 6304 ft 261 kts 160°
2026-04-21 11:30 51.49785 -2.76855 6042 ft 254 kts 160°
2026-04-21 11:31 51.48090 -2.76168 5776 ft 249 kts 162°
2026-04-21 11:31 51.46361 -2.76121 5508 ft 254 kts 190°
2026-04-21 11:31 51.44816 -2.77478 5296 ft 257 kts 221°
2026-04-21 11:31 51.43889 -2.79905 5130 ft 257 kts 254°
2026-04-21 11:32 51.43680 -2.82704 5057 ft 256 kts 268°
2026-04-21 11:32 51.43654 -2.85557 4911 ft 255 kts 270°
2026-04-21 11:32 51.43646 -2.88329 4774 ft 243 kts 270°
2026-04-21 11:32 51.43649 -2.90985 4594 ft 235 kts 270°
2026-04-21 11:33 51.43657 -2.93604 4270 ft 234 kts 270°
2026-04-21 11:33 51.43658 -2.96203 3958 ft 232 kts 270°
2026-04-21 11:33 51.43468 -2.98741 3647 ft 229 kts 246°
2026-04-21 11:33 51.42536 -3.00687 3411 ft 216 kts 207°
2026-04-21 11:34 51.41163 -3.01487 3294 ft 208 kts 183°
2026-04-21 11:34 51.39738 -3.01673 3162 ft 205 kts 172°
2026-04-21 11:34 51.38405 -3.01185 3027 ft 190 kts 142°
2026-04-21 11:34 51.37538 -2.99801 2922 ft 166 kts 115°
2026-04-21 11:35 51.37226 -2.98145 2778 ft 148 kts 90°
2026-04-21 11:35 51.37274 -2.96585 2648 ft 138 kts 84°
2026-04-21 11:35 51.37336 -2.95080 2575 ft 133 kts 84°
2026-04-21 11:35 51.37397 -2.93605 2515 ft 133 kts 84°
2026-04-21 11:36 51.37457 -2.92135 2511 ft 133 kts 84°
2026-04-21 11:36 51.37518 -2.90648 2511 ft 134 kts 84°
2026-04-21 11:36 51.37579 -2.89157 2502 ft 135 kts 84°
2026-04-21 11:36 51.37639 -2.87663 2437 ft 133 kts 84°
2026-04-21 11:37 51.37699 -2.86192 2272 ft 132 kts 83°
2026-04-21 11:37 51.37757 -2.84742 2110 ft 130 kts 83°
2026-04-21 11:37 51.37815 -2.83297 1923 ft 130 kts 83°
2026-04-21 11:37 51.37872 -2.81877 1745 ft 129 kts 83°
2026-04-21 11:38 51.37930 -2.80443 1556 ft 129 kts 84°
2026-04-21 11:38 51.37987 -2.79016 1380 ft 129 kts 84°
2026-04-21 11:38 51.38043 -2.77587 1203 ft 128 kts 82°
2026-04-21 11:38 51.38100 -2.76165 1017 ft 129 kts 82°
2026-04-21 11:39 51.38156 -2.74743 838 ft 126 kts 82°
2026-04-21 11:39 51.38212 -2.73314 669 ft 130 kts 82°
2026-04-21 11:39 51.38264 -2.71995 635 ft 90 kts 86°
2026-04-21 11:39 51.38291 -2.71329 627 ft 47 kts 86°
2026-04-21 11:40 51.38305 -2.70889 618 ft 22 kts 86°
2026-04-21 11:40 51.38330 -2.70773 618 ft 9 kts 24°
2026-04-21 11:40 51.38382 -2.70737 617 ft 9 kts 23°
2026-04-21 11:40 51.38445 -2.70708 621 ft 9 kts 351°
2026-04-21 11:41 51.38470 -2.70780 622 ft 7 kts 292°
2026-04-21 11:41 51.38514 -2.70818 618 ft 12 kts 351°
2026-04-21 11:41 51.38587 -2.70830 616 ft 3 kts 357°
2026-04-21 11:41 51.38603 -2.70818 611 ft 3 kts 41°
2026-04-21 11:42 51.38609 -2.70779 611 ft 5 kts 81°
2026-04-21 11:42 51.38611 -2.70766 611 ft 0 kts 82°